This is the latest recevied weather packets stored in our database for station/object K7FRY. If no packets are shown the sender has not sent any weather packets the latest 10 day(s).
| Time | Temp. | Humidity | Pressure | Rain* | Wind** | Luminosity | Snow |
|---|---|---|---|---|---|---|---|
| 1777203257 | 17.22° C | 33% | 1009.2 hPa | 0 mm | - | 0 W/m² | - |
| 1777202954 | 17.22° C | 33% | 1009.1 hPa | 0 mm | - | 0 W/m² | - |
| 1777202649 | 17.78° C | 33% | 1009.3 hPa | 0 mm | - | 0 W/m² | - |
| 1777202342 | 17.22° C | 33% | 1009.2 hPa | 0 mm | - | 0 W/m² | - |
| 1777202038 | 17.22° C | 34% | 1009.4 hPa | 0 mm | - | 0 W/m² | - |
| 1777201735 | 17.78° C | 35% | 1009.1 hPa | 0 mm | - | 0 W/m² | - |
| 1777201431 | 17.78° C | 34% | 1009.1 hPa | 0 mm | - | 0 W/m² | - |
| 1777201127 | 17.78° C | 34% | 1008.9 hPa | 0 mm | - | 0 W/m² | - |
| 1777200823 | 17.78° C | 35% | 1009.1 hPa | 0 mm | - | 0 W/m² | - |
| 1777200518 | 17.78° C | 39% | 1008.9 hPa | 0 mm | - | 0 W/m² | - |
| 1777200214 | 17.22° C | 45% | 1008.8 hPa | 0 mm | - | 0 W/m² | - |
| 1777199911 | 17.22° C | 47% | 1009.1 hPa | 0 mm | - | 0 W/m² | - |
| 1777199611 | 17.78° C | 45% | 1009.2 hPa | 0 mm | - | 0 W/m² | - |
| 1777199306 | 17.78° C | 42% | 1009.2 hPa | 0 mm | - | 0 W/m² | - |
| 1777199000 | 17.78° C | 41% | 1009.3 hPa | 0 mm | - | 0 W/m² | - |
| 1777198696 | 17.78° C | 46% | 1009.5 hPa | 0 mm | - | 0 W/m² | - |
| 1777198394 | 17.78° C | 46% | 1009.4 hPa | 0 mm | - | 0 W/m² | - |
| 1777198090 | 18.33° C | 42% | 1009.3 hPa | 0 mm | - | 0 W/m² | - |
| 1777197785 | 18.33° C | 47% | 1009.3 hPa | 0 mm | - | 0 W/m² | - |
| 1777197480 | 18.89° C | 39% | 1009.3 hPa | 0 mm | - | 0 W/m² | - |
| 1777197178 | 18.89° C | 37% | 1009.1 hPa | 0 mm | - | 0 W/m² | - |
| 1777196873 | 18.33° C | 39% | 1009.3 hPa | 0 mm | - | 0 W/m² | - |
| 1777196569 | 18.33° C | 45% | 1009.1 hPa | 0 mm | - | 0 W/m² | - |
| 1777196267 | 18.89° C | 39% | 1009.1 hPa | 0 mm | - | 0 W/m² | - |
| 1777195964 | 19.44° C | 37% | 1009.2 hPa | 0 mm | - | 0 W/m² | - |
* Rain latest hour (hover to see other rain measurements)
** Current wind speed in m/s (hover to see current wind gust speed)